Overview Statistics Trail Chart Weather Telemetry Raw packets
 

This is the latest recevied weather packets stored in our database for station/object VU3OPX-13. If no packets are shown the sender has not sent any weather packets the latest 10 day(s).

<< 1 2 3 4 >>
Time Temp. Humidity Pressure Rain* Wind** Luminosity Snow
1788417742 27.22° C 69% 1011 hPa 0 mm - - -
1788415954 26.11° C 72% 1012 hPa 0 mm - - -
1788407163 23.89° C 83% 1013 hPa 0 mm - - -
1788405376 22.78° C 88% 1013 hPa 0 mm - - -
1788403589 22.78° C 88% 1013 hPa 0 mm - - -
1788401802 21.67° C 92% 1012 hPa 0 mm - - -
1788400015 21.67° C 92% 1012 hPa 0 mm - - -
1788398227 21.11° C 95% 1011 hPa 0 mm - - -
1788396440 21.11° C 95% 1011 hPa 0 mm - - -
1788394653 21.11° C 96% 1011 hPa 0 mm - - -
1788392866 21.11° C 96% 1011 hPa 0 mm - - -
1788391078 21.11° C 95% 1010 hPa 0 mm - - -
1788389291 21.11° C 95% 1010 hPa 0 mm - - -
1788387504 21.11° C 97% 1010 hPa 0 mm - - -
1788385716 21.11° C 97% 1010 hPa 0 mm - - -
1788383929 20.56° C 98% 1011 hPa 0 mm - - -
1788382141 20.56° C 98% 1011 hPa 0 mm - - -
1788380354 21.11° C 98% 1011 hPa 0 mm - - -
1788378566 20.56° C 98% 1011 hPa 0 mm - - -
1788376779 21.11° C 98% 1012 hPa 0 mm - - -
1788372957 21.11° C 96% 1013 hPa 0 mm - - -
1788371169 21.11° C 96% 1013 hPa 0 mm - - -
1788369381 21.11° C 95% 1014 hPa 0 mm - - -
1788367594 21.11° C 95% 1014 hPa 0 mm - - -
1788365806 21.67° C 93% 1013 hPa 0 mm - - -

* Rain latest hour (hover to see other rain measurements)
** Current wind speed in m/s (hover to see current wind gust speed)